Flight Track Log - Related Links

Times and Time Zones

All times are in EDT time to prevent confusion due to time zone crossing. See the SWA22 flight status page for this flight to view local times or setup timezone preferences in your user account.

Time Position Orientation Groundspeed Altitude Reporting Facility
EDT Latitude Longitude Course Direction KTS MPH feet Rate Location/Type
Fri 02:28:35 PM 32.8167 -96.8167 140° Southeast 194 223 2,500  Level Dallas / Fort Worth TRACON
Fri 02:29:35 PM 32.7667 -96.7667 140° Southeast 218 251 5,800 3,100 Climbing Dallas / Fort Worth TRACON
Fri 02:30:35 PM 32.7000 -96.7667 180° South 258 297 8,700 1,744 Climbing Dallas / Fort Worth TRACON
Fri 02:32:27 PM 32.7092 -96.9294 274° West 265 305 10,800 1,360 Climbing Fort Worth Center
Fri 02:33:27 PM 32.7514 -97.0183 299° West 316 364 12,600 2,650 Climbing Fort Worth Center
Fri 02:34:27 PM 32.8058 -97.1292 300° West 356 410 16,100 2,700 Climbing Fort Worth Center
Fri 02:35:27 PM 32.8519 -97.2306 298° West 356 410 18,000 2,150 Climbing Fort Worth Center
Fri 02:36:27 PM 32.9044 -97.3392 300° West 362 417 20,400 2,000 Climbing Fort Worth Center
Fri 02:37:27 PM 32.9522 -97.4406 299° West 376 433 22,000 1,850 Climbing Fort Worth Center
Fri 02:38:27 PM 33.0128 -97.5694 299° West 385 443 24,100 1,700 Climbing Fort Worth Center
Fri 02:39:27 PM 33.0669 -97.6836 300° West 397 457 25,400 1,500 Climbing Fort Worth Center
Fri 02:40:27 PM 33.1167 -97.8078 296° West 410 472 27,100 1,900 Climbing Fort Worth Center
Fri 02:41:27 PM 33.1558 -97.9369 290° West 416 479 29,200 2,000 Climbing Fort Worth Center
Fri 02:42:27 PM 33.1950 -98.0589 291° West 406 467 31,100 1,900 Climbing Fort Worth Center
Fri 02:43:27 PM 33.2317 -98.1783 290° West 400 460 33,000 1,750 Climbing Fort Worth Center
Fri 02:44:27 PM 33.2686 -98.2956 291° West 382 440 34,600 1,500 Climbing Fort Worth Center
Fri 02:45:27 PM 33.3011 -98.4028 290° West 358 412 36,000 700 Climbing Fort Worth Center
Fri 02:46:27 PM 33.3358 -98.5050 292° West 353 406 36,000  Level Fort Worth Center
Fri 02:47:27 PM 33.3808 -98.6150 296° West 358 412 36,000  Level Fort Worth Center
Fri 02:48:27 PM 33.4444 -98.7153 307° West 364 419 36,000  Level Fort Worth Center
Fri 02:49:27 PM 33.5100 -98.8161 308° West 378 435 36,000  Level Fort Worth Center
Fri 02:50:27 PM 33.5736 -98.9244 305° West 395 455 36,000  Level Fort Worth Center
Fri 02:51:27 PM 33.6369 -99.0253 307° West 390 449 36,000  Level Fort Worth Center
Fri 02:52:27 PM 33.7003 -99.1261 307° West 379 436 36,000  Level Fort Worth Center
Fri 02:53:27 PM 33.7636 -99.2325 306° West 379 436 36,000  Level Fort Worth Center
Fri 02:54:27 PM 33.8269 -99.3286 308° West 385 443 36,000  Level Fort Worth Center
Fri 02:55:27 PM 33.8897 -99.4378 305° West 385 443 36,000  Level Fort Worth Center
Fri 02:56:27 PM 33.9550 -99.5394 308° West 391 450 36,000  Level Fort Worth Center
Fri 02:57:27 PM 34.0178 -99.6411 307° West 391 450 36,000  Level Fort Worth Center
Fri 02:58:27 PM 34.0806 -99.7481 305° West 391 450 36,000  Level Fort Worth Center
Fri 03:00:39 PM 34.2197 -99.9775 306° West 386 444 36,000 -62 Level Albuquerque Center
Fri 03:01:41 PM 34.2836 -100.0844 306° West 388 447 35,800 -1,452 Descending Albuquerque Center
Fri 03:02:43 PM 34.3494 -100.1925 306° West 389 448 33,000 -2,806 Descending Albuquerque Center
Fri 03:03:45 PM 34.4139 -100.3008 306° West 394 453 30,000 -2,806 Descending Albuquerque Center
Fri 03:04:47 PM 34.4911 -100.4289 306° West 395 455 27,200 -2,468 Descending Albuquerque Center
Fri 03:05:49 PM 34.5531 -100.5314 306° West 386 444 24,900 -1,645 Descending Albuquerque Center
Fri 03:06:51 PM 34.6114 -100.6275 306° West 370 426 23,800 -1,742 Descending Albuquerque Center
Fri 03:07:53 PM 34.6653 -100.7222 305° West 350 403 21,300 -2,177 Descending Albuquerque Center
Fri 03:08:55 PM 34.7206 -100.8144 306° West 342 394 19,300 -1,113 Descending Albuquerque Center
Fri 03:09:57 PM 34.7739 -100.9050 306° West 334 384 19,000 -1,645 Descending Albuquerque Center
Fri 03:10:59 PM 34.8356 -101.0100 306° West 321 369 15,900 -2,758 Descending Albuquerque Center
Fri 03:12:01 PM 34.8925 -101.1069 306° West 344 396 13,300 -2,032 Descending Albuquerque Center
Fri 03:13:03 PM 34.9558 -101.1906 313° West 340 391 11,700 -1,403 Descending Albuquerque Center
Fri 03:14:05 PM 35.0122 -101.2683 312° West 316 364 10,400 -1,161 Descending Albuquerque Center
Fri 03:15:07 PM 35.0650 -101.3411 312° West 296 341 9,300 -1,306 Descending Albuquerque Center
Fri 03:16:09 PM 35.1158 -101.4125 311° West 286 329 7,700 -1,548 Descending Albuquerque Center
Fri 03:17:11 PM 35.1756 -101.4953 311° West 278 320 6,100 -1,258 Descending Albuquerque Center
Fri 03:18:13 PM 35.2256 -101.5617 313° West 272 313 5,100 -484 Descending Albuquerque Center
Fri 03:19:15 PM 35.2711 -101.6111 318° Northwest 244 281 5,100 -194 Level Albuquerque Center
Fri 03:20:17 PM 35.2694 -101.6533 267° West 185 213 4,700 -581 Descending Albuquerque Center
Fri 03:21:19 PM 35.2389 -101.6900 224° Southwest 149 171 3,900 -484 Descending Albuquerque Center
Fri 03:22:21 PM 35.2206 -101.7133 226° Southwest 102 117 3,700 -194 Descending Albuquerque Center

Login

Don't have an account? Register now (free) for customized features, flight alerts, and more!